Content
SEND FEEDBACK

Daily
Averages
Monthly
Summary
United States of America

ST. LOUIS, MISSOURI


Home > North America > United States > Missouri
Elevation: 535 feet     Latitude: 38 45N     Longitude: 090 22W

WEATHER
 
SELECT A DAY
Number of Records: 199,686;   Date Range: 1/1/95 - 10/22/14
 
SHARE

PRINT THIS DATA

[ ← Previous Day ]
WEATHER ALMANAC - OCTOBER 25, 2013
[ Next Day → ]
[ °C ]   °F
Weather ElementAverageHighLow
Temperature39.7 °F54 °F (3:54 pm)25 °F (1:54 am)
Dewpoint24.9 °F30 °F (9:54 am)21.9 °F (1:54 am)
Humidity60 %92 % (4:54 am)30 % (3:54 pm)
Barometer30.42 in30.55 in (8:54 am)30.22 in (11:54 pm)
Wind Speed3 mph6.9 mph (7:54 pm)
Weather ElementAverage
Visibility10 mi
Wind DirectionE (95.2 °)

Weather ElementTotal
Precipitation---
Heating Degree Days25.5 (Base 65)
Averaged from 23 records on October 25, 2013
WEATHER CONDITIONS BREAKOUT
WIND DIRECTION BREAKOUT
WEATHER BY HOUR - OCTOBER 25, 2013
[ °C ]   °F
Local TimeTemperatureDewpointHumidityBarometerVisibilityWind DirectionWind SpeedGust SpeedPrecipitationEventsConditions
1:54 AM25.0 °F21.9 °F88 %30.46 in10.0 miCalmClear
2:54 AM26.1 °F23.0 °F88 %30.47 in10.0 miCalmClear
3:54 AM26.1 °F23.0 °F88 %30.47 in10.0 miCalmClear
4:54 AM25.0 °F23.0 °F92 %30.48 in10.0 miCalmClear
5:54 AM26.1 °F23.0 °F88 %30.51 in10.0 miCalmClear
6:54 AM26.1 °F23.0 °F88 %30.52 in10.0 miCalmClear
7:54 AM25.0 °F21.9 °F88 %30.53 in10.0 miCalmClear
8:54 AM30.9 °F28.0 °F89 %30.55 in10.0 miCalmClear
9:54 AM39.0 °F30.0 °F70 %30.54 in10.0 miWSW (240°)4.6 mphClear
10:54 AM45.0 °F28.9 °F53 %30.53 in10.0 miWSW (250°)4.6 mphClear
11:54 AM48.9 °F27.0 °F43 %30.52 in10.0 miWest (270°)5.8 mphPartly Cloudy
12:54 PM50.0 °F27.0 °F41 %30.48 in10.0 miCalmClear
1:54 PM52.0 °F25.0 °F35 %30.44 in10.0 miVariable3.5 mphScattered Clouds
2:54 PM53.1 °F24.1 °F32 %30.40 in10.0 miVariable3.5 mphPartly Cloudy
3:54 PM54.0 °F23.0 °F30 %30.38 in10.0 miCalmClear
4:54 PM54.0 °F23.0 °F30 %30.35 in10.0 miSouth (180°)5.8 mphClear
5:54 PM50.0 °F24.1 °F36 %30.33 in10.0 miSSW (200°)3.5 mphClear
6:54 PM43.0 °F27.0 °F53 %30.32 in10.0 miSSE (160°)4.6 mphClear
7:54 PM42.1 °F26.1 °F53 %30.31 in10.0 miSouth (170°)6.9 mphClear
8:54 PM42.1 °F26.1 °F53 %30.29 in10.0 miSouth (170°)5.8 mphClear
9:54 PM43.0 °F25.0 °F49 %30.27 in10.0 miSouth (170°)6.9 mphClear
10:54 PM44.1 °F24.1 °F45 %30.25 in10.0 miSouth (180°)5.8 mphClear
11:54 PM43.0 °F25.0 °F49 %30.22 in10.0 miSSW (200°)6.9 mphClear
Hourly data recorded from KSUS, located miles away from St. Louis, Missouri







STORIES FROM OUR PARTNERS